TimeCDT,TemperatureF,Dew PointF,Humidity,Sea Level PressureIn,VisibilityMPH,Wind Direction,Wind SpeedMPH,Gust SpeedMPH,PrecipitationIn,Events,Conditions,WindDirDegrees,DateUTC
12:58 AM,84.9,65.3,52,29.85,10.0,SSE,11.5,-,N/A,,Clear,150,2013-08-05 05:58:00
1:58 AM,82.6,65.5,56,29.84,10.0,SSE,10.4,-,N/A,,Clear,160,2013-08-05 06:58:00
2:58 AM,81.0,65.7,60,29.84,10.0,South,10.4,-,N/A,,Clear,170,2013-08-05 07:58:00
3:58 AM,82.0,64.9,56,29.84,10.0,South,17.3,-,N/A,,Clear,170,2013-08-05 08:58:00
4:58 AM,81.1,66.4,61,29.84,10.0,South,12.7,-,N/A,,Clear,180,2013-08-05 09:58:00
5:58 AM,80.1,67.1,64,29.84,10.0,South,13.8,-,N/A,,Clear,180,2013-08-05 10:58:00
6:58 AM,79.2,67.3,67,29.85,10.0,South,13.8,-,N/A,,Clear,180,2013-08-05 11:58:00
7:58 AM,80.1,67.5,65,29.86,10.0,South,16.1,-,N/A,,Clear,190,2013-08-05 12:58:00
8:58 AM,83.7,65.1,53,29.87,10.0,South,16.1,24.2,N/A,,Clear,190,2013-08-05 13:58:00
9:58 AM,87.1,59.9,40,29.88,10.0,SSW,18.4,-,N/A,,Clear,210,2013-08-05 14:58:00
10:58 AM,90.3,60.4,37,29.87,10.0,SSW,15.0,-,N/A,,Clear,210,2013-08-05 15:58:00
11:58 AM,93.0,61.2,34,29.87,10.0,SSW,12.7,-,N/A,,Partly Cloudy,200,2013-08-05 16:58:00
12:58 PM,94.6,61.3,33,29.85,10.0,SSW,15.0,-,N/A,,Scattered Clouds,210,2013-08-05 17:58:00
1:01 PM,95.0,60.8,32,30.01,10.0,SW,15.0,-,N/A,,Scattered Clouds,220,2013-08-05 18:01:00
1:22 PM,95.0,60.8,32,30.00,10.0,South,16.1,21.9,N/A,,Scattered Clouds,170,2013-08-05 18:22:00
1:58 PM,95.7,61.5,32,29.83,10.0,South,10.4,20.7,N/A,,Scattered Clouds,180,2013-08-05 18:58:00
2:35 PM,96.8,62.6,32,29.97,10.0,South,16.1,20.7,N/A,,Scattered Clouds,170,2013-08-05 19:35:00
2:58 PM,96.8,61.5,31,29.80,10.0,SSE,10.4,-,N/A,,Partly Cloudy,160,2013-08-05 19:58:00
3:58 PM,97.5,60.4,29,29.77,10.0,South,13.8,18.4,N/A,,Scattered Clouds,170,2013-08-05 20:58:00
4:58 PM,98.8,60.1,28,29.75,10.0,SSE,16.1,20.7,N/A,,Partly Cloudy,160,2013-08-05 21:58:00
5:58 PM,98.6,60.1,28,29.74,10.0,SSE,13.8,25.3,N/A,,Clear,160,2013-08-05 22:58:00
6:58 PM,97.3,59.2,28,29.73,10.0,SSE,15.0,-,N/A,,Clear,150,2013-08-05 23:58:00
7:58 PM,94.6,59.2,30,29.72,10.0,SSE,12.7,-,N/A,,Clear,150,2013-08-06 00:58:00
8:58 PM,90.1,57.0,33,29.71,10.0,SSE,10.4,-,N/A,,Clear,150,2013-08-06 01:58:00
9:58 PM,83.1,58.5,43,29.74,10.0,South,5.8,-,N/A,,Clear,170,2013-08-06 02:58:00
10:58 PM,80.6,59.0,48,29.75,10.0,South,5.8,-,N/A,,Clear,180,2013-08-06 03:58:00
11:58 PM,79.7,59.4,50,29.75,10.0,SSE,8.1,-,N/A,,Clear,150,2013-08-06 04:58:00